This is the latest recevied weather packets stored in our database for station/object KM4KMS. If no packets are shown the sender has not sent any weather packets the latest 10 day(s).
| Time | Temp. | Humidity | Pressure | Rain* | Wind** | Luminosity | Snow |
|---|---|---|---|---|---|---|---|
| 1777812480 | 7.22° C | 78% | 1019.8 hPa | 0 mm | - | 57 W/m² | - |
| 1777812178 | 6.67° C | 78% | 1019.9 hPa | 0 mm | - | 57 W/m² | - |
| 1777811876 | 6.67° C | 79% | 1019.9 hPa | 0 mm | - | 166 W/m² | - |
| 1777811575 | 6.67° C | 82% | 1019.7 hPa | 0 mm | - | 172 W/m² | - |
| 1777811270 | 6.11° C | 82% | 1019.8 hPa | 0 mm | - | 147 W/m² | - |
| 1777810967 | 5.56° C | 83% | 1019.7 hPa | 0 mm | - | 139 W/m² | - |
| 1777810664 | 6.11° C | 82% | 1019.8 hPa | 0 mm | - | 121 W/m² | - |
| 1777810361 | 5.56° C | 84% | 1019.7 hPa | 0 mm | - | 102 W/m² | - |
| 1777810057 | 5.56° C | 85% | 1019.8 hPa | 0 mm | - | 92 W/m² | - |
| 1777809755 | 5° C | 85% | 1019.8 hPa | 0 mm | - | 73 W/m² | - |
| 1777809452 | 4.44° C | 88% | 1019.7 hPa | 0 mm | - | 52 W/m² | - |
| 1777809150 | 3.89° C | 88% | 1019.7 hPa | 0 mm | - | 46 W/m² | - |
| 1777808848 | 3.89° C | 89% | 1019.6 hPa | 0 mm | - | 42 W/m² | - |
| 1777808544 | 3.89° C | 91% | 1019.5 hPa | 0 mm | - | 39 W/m² | - |
| 1777808241 | 3.33° C | 92% | 1019.6 hPa | 0 mm | - | 35 W/m² | - |
| 1777807940 | 2.78° C | 93% | 1019.5 hPa | 0 mm | - | 31 W/m² | - |
| 1777807637 | 2.78° C | 96% | 1019.3 hPa | 0 mm | - | 29 W/m² | - |
| 1777807334 | 2.22° C | 99% | 1019.5 hPa | 0 mm | - | 23 W/m² | - |
| 1777807030 | 1.67° C | 99% | 1019.3 hPa | 0 mm | - | 25 W/m² | - |
| 1777806727 | 1.11° C | 99% | 1019.4 hPa | 0 mm | - | 19 W/m² | - |
| 1777806423 | 0.56° C | 99% | 1019.4 hPa | 0 mm | - | 15 W/m² | - |
| 1777806120 | 0.56° C | 99% | 1019.2 hPa | 0 mm | - | 11 W/m² | - |
| 1777805816 | 0° C | 99% | 1019.3 hPa | 0 mm | - | 8 W/m² | - |
| 1777805514 | 0.56° C | 99% | 1019.2 hPa | 0 mm | - | 5 W/m² | - |
| 1777805211 | 0° C | 99% | 1019 hPa | 0 mm | - | 2 W/m² | - |
* Rain latest hour (hover to see other rain measurements)
** Current wind speed in m/s (hover to see current wind gust speed)